Wind_Speed
12 12 12 13 14 13 11 8 6 5 5 6 8 9 10 13 15 18 21 23 24 25 25 26 27 27 29 31 32 34 36 37 41 46 48 47 48 47 49 49 48 48 48
16 17 16 14 11 9 8 6 5 5 6 7 9 12 14 17 19 20 21 21 22 23 23 25 26 28 30 32 36 39 41 43 44 49 52 55 53 50 52 52 52 52 51
16 16 14 11 10 10 8 7 6 7 7 9 10 12 14 16 17 17 18 19 21 23 25 27 30 33 35 38 41 44 46 49 47 47 50 56 58 60 57 56 57 56 56
18 16 13 12 12 11 9 8 8 8 9 11 14 16 16 16 16 17 19 20 22 25 28 31 34 37 40 42 44 45 47 49 50 49 47 48 53 58 66 60 59 58 58
18 16 14 14 13 12 10 8 7 8 11 15 15 14 15 16 17 19 21 24 27 29 32 35 37 40 42 43 44 43 43 44 45 47 48 48 48 49 53 64 60 58 56
18 17 16 16 15 12 10 8 8 11 15 18 17 16 16 17 20 21 24 27 30 33 34 36 38 41 41 39 38 39 40 41 42 43 45 47 50 52 55 59 62 64 62
17 17 18 17 15 12 10 10 11 16 19 19 18 17 19 21 23 26 29 31 31 32 35 38 41 41 38 38 39 40 40 41 43 44 46 47 49 52 55 59 63 66 66
17 19 19 18 15 13 11 12 15 20 22 21 21 22 24 26 29 33 33 32 34 37 39 40 40 39 40 39 40 41 42 44 45 46 48 51 52 55 57 60 63 68 69
17 20 20 18 16 14 14 15 18 23 25 24 24 27 29 32 35 36 35 36 39 41 41 39 39 39 39 40 41 42 43 45 47 49 52 54 56 58 59 59 59 60 65
20 21 21 18 16 16 17 18 22 26 26 26 28 31 34 37 39 38 39 42 42 43 41 40 39 39 40 41 42 44 46 49 51 54 57 58 58 58 58 57 57 56 57
21 20 19 18 17 17 18 21 25 26 26 29 32 35 38 40 41 41 43 45 44 42 40 39 40 40 41 43 45 47 51 54 56 57 58 58 57 57 56 55 55 55 55
20 19 19 18 18 18 19 23 26 27 29 32 34 37 40 42 42 45 46 46 42 40 39 40 41 42 43 46 49 51 54 56 58 59 59 57 56 56 55 54 54 54 54
22 21 21 19 19 20 23 25 28 30 32 33 37 39 41 44 44 46 45 41 39 39 41 42 43 44 46 49 51 53 56 59 60 60 60 59 57 56 54 53 54 53 51
21 21 21 21 22 24 26 27 30 32 33 35 38 40 42 44 45 45 41 39 40 40 41 42 45 47 48 51 53 56 58 60 61 61 59 55 53 53 52 51 49 46 46
22 22 23 23 24 26 27 29 31 33 35 38 40 42 43 43 44 42 39 39 40 41 43 46 47 48 50 52 55 58 59 61 61 58 56 53 51 49 46 44 43 44 43
22 25 25 25 26 26 28 30 32 34 37 38 40 41 42 43 42 40 40 40 42 43 46 47 49 50 51 53 56 58 61 60 59 58 55 51 48 45 42 42 42 40 37
24 25 25 24 25 27 30 31 32 34 37 38 39 41 42 41 40 40 41 42 43 46 47 48 50 50 52 54 57 59 59 58 57 54 52 48 44 43 43 44 43 37 35
22 22 22 24 27 29 29 29 32 35 37 37 38 40 40 39 39 40 41 43 46 48 48 50 51 51 54 55 57 58 57 55 53 51 48 46 44 43 44 45 44 40 43
20 20 22 26 26 25 26 28 31 35 36 35 37 38 38 38 39 40 43 46 48 48 49 50 52 52 54 55 55 55 54 52 50 48 45 43 44 44 44 39 40 48 52
19 22 23 21 22 23 26 29 32 34 33 35 36 36 36 38 40 43 46 47 48 50 50 51 52 53 53 53 54 52 51 50 49 47 46 46 46 45 42 41 47 52 48
21 20 19 20 22 24 26 29 30 31 33 34 34 34 37 39 43 45 46 48 49 50 50 51 51 53 53 52 51 49 48 48 49 50 50 48 46 44 47 45 44 45 44
18 18 20 21 23 24 26 28 30 30 31 31 32 34 38 41 44 46 47 48 49 50 50 51 51 52 53 50 48 47 47 47 49 50 49 47 47 47 45 42 39 38 36
17 19 21 22 23 24 26 28 29 29 29 30 33 37 40 42 44 46 47 48 49 50 50 50 51 52 52 51 49 48 48 48 48 47 46 46 47 44 40 35 32 31 32
18 20 21 22 23 25 27 28 28 27 28 32 35 39 41 43 44 45 47 48 49 49 49 49 50 51 51 50 49 49 49 49 47 44 47 45 43 39 35 31 27 28 31
19 20 21 23 24 25 26 25 26 28 31 34 37 40 42 43 44 46 48 48 47 48 48 48 48 50 51 49 48 48 48 48 43 46 44 42 39 36 31 27 27 28 30
21 21 23 24 24 24 24 24 27 30 33 36 39 41 42 44 45 47 48 48 47 46 45 44 45 47 47 47 47 47 46 43 42 42 41 39 36 32 29 28 28 28 34
Wind_Direction
241 237 241 255 268 268 258 244 256 273 272 258 248 254 262 269 275 277 277 278 281 283 284 285 285 287 289 291 293 295 297 297 298 298 295 295 294 295 294 292 292 290 288
242 240 244 256 254 237 221 222 219 238 247 257 267 273 278 281 281 278 278 280 281 282 284 288 291 293 295 298 299 298 298 299 302 302 302 301 297 297 296 295 292 291 289
243 235 238 231 221 207 210 221 244 260 270 277 282 286 285 284 282 282 286 288 291 293 294 295 297 298 299 300 302 303 304 303 302 301 303 304 303 301 300 298 296 296 295
234 224 220 217 199 201 212 231 250 272 286 296 304 302 299 297 297 296 294 294 294 296 298 299 300 301 302 303 303 302 302 302 303 301 299 298 300 303 302 300 298 297 295
213 215 210 197 197 205 222 242 269 292 313 318 314 307 301 299 299 302 304 305 305 303 301 299 299 302 303 303 302 303 303 304 304 304 304 302 300 299 299 299 302 300 300
205 207 198 193 200 216 236 256 285 314 320 321 317 311 310 310 310 310 309 306 302 301 302 303 305 309 309 309 309 310 310 309 308 308 308 307 307 307 305 302 299 299 299
201 198 191 195 207 224 243 269 300 316 323 321 316 313 312 312 312 311 310 307 307 307 307 308 308 313 313 314 313 312 311 310 310 308 306 305 305 304 304 303 301 300 299
197 192 195 203 214 230 253 284 302 315 320 315 312 313 315 316 316 316 315 314 314 315 317 317 318 318 317 315 314 313 312 310 309 307 306 304 304 303 302 301 300 297 293
200 198 202 210 221 236 258 284 303 313 313 309 310 312 314 315 317 316 316 317 317 319 321 321 320 317 315 314 313 312 311 309 308 306 305 305 304 303 301 299 298 298 297
200 201 207 216 230 243 261 284 303 308 305 304 307 309 313 315 316 316 317 321 321 321 321 320 318 316 316 315 314 314 312 311 310 310 309 308 306 305 304 302 300 297 296
201 205 213 224 240 252 269 286 301 301 299 301 303 306 310 314 315 316 317 320 320 320 320 319 318 318 317 317 315 314 314 313 312 312 311 311 311 310 308 306 303 301 300
205 211 221 234 248 263 277 290 294 295 296 298 300 305 308 312 313 314 316 316 318 319 320 320 319 318 318 317 316 315 314 314 315 315 315 314 312 310 308 306 305 303 300
211 219 230 243 257 266 281 287 288 290 294 296 299 302 306 309 311 314 315 317 318 320 321 319 317 318 318 316 315 316 316 317 317 317 316 314 313 311 309 307 304 302 301
220 228 239 252 264 275 282 282 284 288 292 295 299 302 304 308 312 314 316 318 320 319 317 316 317 317 317 316 317 317 318 318 318 318 315 313 312 310 308 306 304 304 303
232 239 250 261 271 278 280 282 284 288 291 295 298 301 305 309 312 315 318 319 317 316 317 317 316 317 317 318 318 318 319 319 318 317 316 314 312 311 309 305 306 304 306
242 249 256 265 274 276 279 281 283 286 290 294 297 302 306 309 313 316 316 316 316 317 316 316 316 318 318 318 319 320 320 320 318 316 315 316 315 312 308 306 304 309 307
251 254 260 265 273 277 280 280 282 286 289 295 299 302 306 311 314 314 315 315 315 315 316 316 317 317 319 319 320 320 320 319 317 316 317 317 314 312 309 308 310 308 301
247 253 262 272 278 280 280 281 283 285 290 296 299 303 309 312 312 314 314 314 315 317 318 318 318 320 320 321 321 320 320 319 318 317 318 317 315 313 311 313 313 307 303
251 262 273 281 282 282 282 281 282 286 295 301 303 307 310 311 313 313 314 316 317 318 318 319 319 320 320 320 320 321 322 320 318 318 318 317 315 314 315 315 305 296 304
265 278 283 285 287 285 283 282 284 293 301 303 307 309 311 312 312 316 317 318 319 320 321 320 319 319 319 321 323 324 322 321 318 318 318 316 316 318 316 307 300 302 307
281 286 290 289 286 285 284 287 295 301 303 305 307 310 311 313 315 317 319 320 321 320 320 320 319 319 321 324 325 324 321 320 320 320 318 319 320 318 313 311 309 307 310
287 291 291 291 291 290 290 298 303 304 303 305 308 310 313 316 318 320 321 320 320 320 320 319 320 321 323 324 324 323 322 322 321 320 320 320 320 317 317 316 312 311 310
291 293 294 295 294 297 302 306 305 303 305 308 311 315 318 318 319 320 321 321 321 320 319 321 322 322 322 324 326 326 325 324 323 322 319 320 319 320 320 319 318 316 313
298 300 300 300 303 305 304 303 301 303 308 314 317 319 319 319 320 320 321 321 321 321 322 323 322 321 323 326 327 326 326 326 324 321 318 321 321 325 325 323 321 319 319
304 304 305 306 303 302 300 300 304 311 318 320 319 319 319 320 320 320 321 322 323 323 323 322 322 324 325 327 327 327 326 326 324 316 320 324 328 328 327 325 326 324 323
308 306 304 302 302 300 301 309 315 318 319 320 320 320 320 320 321 322 322 323 323 323 322 323 324 324 325 326 327 327 326 325 320 320 325 329 329 328 330 330 329 332 332
Height
3109 3111 3112 3112 3112 3112 3112 3111 3111 3111 3112 3111 3110 3109 3107 3106 3104 3102 3099 3097 3094 3091 3089 3085 3082 3079 3075 3071 3066 3062 3058 3054 3048 3041 3037 3035 3032 3029 3024 3021 3018 3015 3012
3106 3107 3108 3108 3109 3109 3109 3109 3109 3109 3110 3109 3108 3106 3104 3102 3100 3098 3095 3092 3089 3086 3083 3080 3076 3073 3068 3064 3059 3054 3050 3046 3042 3033 3026 3020 3020 3019 3013 3009 3006 3002 2999
3102 3103 3104 3105 3106 3107 3107 3107 3108 3108 3108 3107 3105 3103 3100 3098 3095 3093 3090 3087 3084 3081 3078 3074 3070 3066 3061 3056 3051 3046 3040 3034 3032 3027 3019 3007 3001 2995 2997 2994 2990 2986 2983
3097 3099 3100 3102 3103 3104 3105 3105 3105 3105 3105 3104 3102 3100 3097 3094 3091 3089 3086 3083 3080 3076 3072 3067 3063 3058 3053 3048 3043 3037 3031 3025 3018 3015 3013 3007 2995 2984 2972 2976 2974 2972 2968
3093 3095 3097 3099 3101 3102 3102 3103 3103 3103 3102 3100 3098 3096 3094 3092 3089 3085 3081 3077 3073 3069 3065 3061 3056 3051 3045 3039 3034 3028 3022 3016 3009 3003 2998 2993 2989 2984 2974 2957 2957 2956 2952
3089 3091 3094 3097 3099 3100 3100 3100 3100 3099 3098 3096 3094 3092 3090 3087 3083 3080 3076 3072 3068 3063 3058 3053 3047 3042 3035 3029 3024 3018 3013 3007 3002 2995 2989 2982 2975 2968 2961 2952 2946 2939 2938
3086 3088 3091 3094 3096 3097 3097 3096 3095 3094 3093 3091 3090 3087 3085 3082 3079 3075 3071 3066 3061 3056 3051 3045 3039 3032 3026 3020 3014 3009 3004 2998 2992 2987 2980 2975 2968 2960 2952 2943 2933 2924 2922
3083 3086 3089 3091 3093 3093 3093 3092 3091 3090 3088 3087 3085 3083 3080 3077 3073 3068 3063 3058 3053 3047 3041 3034 3028 3021 3016 3011 3005 2999 2994 2988 2982 2977 2971 2965 2958 2951 2943 2934 2923 2911 2907
3081 3083 3086 3088 3089 3089 3089 3088 3086 3085 3083 3081 3079 3077 3074 3070 3065 3060 3055 3049 3043 3037 3030 3024 3019 3014 3008 3002 2996 2991 2986 2980 2974 2968 2961 2954 2947 2939 2931 2923 2913 2901 2887
3077 3080 3083 3085 3085 3085 3085 3084 3082 3080 3078 3076 3074 3071 3067 3062 3057 3052 3046 3040 3033 3028 3022 3016 3011 3006 3000 2993 2988 2981 2976 2969 2962 2955 2947 2939 2932 2923 2915 2906 2899 2890 2878
3075 3078 3080 3081 3082 3081 3081 3080 3078 3075 3073 3071 3068 3064 3060 3055 3049 3044 3038 3031 3026 3019 3014 3008 3002 2996 2990 2984 2978 2971 2964 2957 2949 2941 2932 2924 2916 2907 2899 2891 2883 2875 2867
3073 3075 3077 3077 3078 3077 3077 3075 3073 3070 3068 3064 3061 3057 3052 3047 3042 3035 3030 3024 3017 3011 3005 2998 2992 2987 2981 2975 2968 2960 2953 2944 2935 2927 2918 2910 2901 2894 2886 2877 2869 2860 2853
3070 3071 3073 3073 3073 3073 3072 3070 3067 3065 3062 3058 3054 3050 3045 3040 3034 3028 3021 3014 3008 3001 2995 2989 2984 2978 2973 2965 2958 2949 2941 2932 2923 2914 2905 2896 2887 2879 2871 2864 2856 2848 2840
3067 3068 3069 3069 3069 3068 3066 3064 3061 3058 3055 3051 3047 3042 3037 3031 3026 3019 3012 3005 2999 2993 2988 2982 2976 2970 2963 2955 2947 2938 2930 2921 2911 2901 2892 2883 2875 2866 2859 2851 2844 2836 2829
3063 3064 3065 3064 3064 3062 3060 3057 3055 3052 3048 3044 3039 3034 3029 3024 3018 3010 3003 2998 2992 2986 2980 2974 2967 2961 2953 2945 2936 2927 2918 2908 2898 2889 2880 2871 2863 2856 2848 2840 2833 2826 2820
3060 3060 3060 3059 3058 3056 3054 3051 3048 3045 3041 3037 3032 3027 3022 3016 3009 3002 2996 2991 2985 2978 2972 2965 2957 2950 2943 2935 2925 2915 2905 2895 2885 2876 2869 2860 2852 2845 2837 2831 2824 2818 2810
3054 3055 3054 3054 3052 3050 3048 3045 3042 3038 3033 3029 3024 3019 3014 3007 3000 2995 2988 2982 2977 2971 2963 2956 2949 2941 2933 2924 2913 2904 2894 2884 2874 2865 2856 2850 2843 2834 2826 2819 2812 2807 2802
3049 3049 3049 3048 3046 3043 3040 3038 3034 3030 3025 3021 3016 3011 3004 2998 2993 2987 2982 2976 2969 2961 2953 2946 2938 2930 2921 2911 2902 2894 2885 2875 2864 2854 2847 2839 2832 2825 2816 2808 2801 2795 2789
3044 3044 3043 3041 3038 3036 3033 3030 3026 3022 3018 3014 3008 3002 2997 2992 2986 2980 2974 2967 2959 2952 2944 2935 2926 2919 2911 2902 2892 2883 2873 2864 2855 2846 2839 2831 2823 2815 2808 2799 2791 2782 2776
3039 3038 3036 3034 3031 3029 3026 3022 3019 3014 3010 3005 3000 2994 2989 2984 2978 2971 2964 2957 2949 2941 2933 2925 2916 2909 2901 2892 2882 2871 2861 2853 2845 2839 2830 2822 2814 2806 2798 2790 2779 2768 2762
3032 3030 3028 3027 3024 3021 3018 3014 3011 3007 3002 2997 2992 2987 2982 2975 2968 2961 2954 2947 2940 2933 2925 2916 2908 2898 2889 2881 2872 2863 2853 2844 2835 2827 2819 2811 2803 2795 2786 2777 2768 2759 2751
3025 3024 3022 3019 3016 3013 3009 3006 3003 2999 2994 2990 2985 2981 2974 2966 2959 2952 2946 2939 2931 2924 2916 2908 2898 2888 2879 2871 2864 2856 2847 2837 2826 2817 2809 2800 2792 2784 2775 2767 2759 2752 2745
3019 3017 3014 3011 3007 3004 3001 2999 2996 2992 2988 2983 2978 2972 2965 2958 2952 2945 2938 2931 2923 2914 2906 2897 2888 2879 2870 2862 2853 2846 2837 2828 2817 2808 2799 2792 2782 2774 2766 2759 2752 2746 2739
3011 3009 3006 3003 3000 2997 2995 2992 2989 2985 2981 2976 2970 2963 2957 2951 2944 2937 2930 2923 2914 2905 2896 2887 2879 2870 2861 2852 2845 2836 2826 2817 2808 2799 2790 2783 2775 2767 2760 2753 2748 2741 2735
3004 3002 2998 2996 2993 2991 2988 2986 2982 2977 2972 2967 2962 2956 2950 2944 2937 2930 2922 2914 2905 2895 2887 2879 2869 2860 2851 2844 2836 2827 2817 2808 2800 2790 2783 2775 2767 2760 2754 2749 2743 2737 2730
2997 2994 2992 2989 2986 2984 2982 2978 2973 2969 2965 2961 2955 2949 2942 2936 2929 2921 2914 2904 2896 2888 2880 2871 2862 2853 2845 2837 2828 2819 2810 2802 2793 2784 2776 2768 2762 2755 2750 2744 2738 2732 2723